Regional Weather Roundup
Issued by NWS

Home | Current Version | Previous Version | Text Only | Print | Product List | Glossary Off
Versions: 1 2 3 4 5 6 7 8 9 10 11 12 13 14 15 16 17 18 19 20 21 22 23 24 25 26 27 28 29 30 31 32 33 34 35 36 37 38 39 40 41 42 43 44 45 46 47 48 49 50

000
ASUS43 KIND 190709
RWRIN

WEATHER ROUNDUP FOR INDIANA
NATIONAL WEATHER SERVICE INDIANAPOLIS IN
200 AM EST FRI DEC 19 2014

NOTE: "FAIR" INDICATES FEW OR NO CLOUDS BELOW 12,000 FEET WITH NO
SIGNIFICANT WEATHER AND/OR OBSTRUCTIONS TO VISIBILITY.

* - STATION DOES NOT REPORT WEATHER SUCH AS PRECIPITATION OR FOG.

+ - STATION NOT QUALITY CONTROLLED BY THE NATIONAL WEATHER SERVICE.
    USE DATA WITH CAUTION...ESPECIALLY DEWPOINT AND RELATIVE
    HUMIDITY OBSERVATIONS.

INZ001>003-010>013-019-020-190800-
NORTHWEST INDIANA

CITY           SKY/WX    TMP DP  RH WIND       PRES   REMARKS
GARY /AIRPORT/ CLOUDY    30  19  64 W6        30.27S WCI  24
KNOX *+        CLOUDY    26  19  72 W8        30.25S WCI  18
LA PORTE +     CLOUDY    28  23  81 W8        30.25R WCI  20
MICHIGAN CITY+ CLOUDY    28  19  69 SW7       30.25S WCI  21
MONTICELLO +   CLOUDY    24  20  86 W3        30.26S
RENSSELAER +   CLOUDY    27  25  93 W6        30.27S WCI  20
VALPARAISO     CLOUDY    26  20  77 SW8       30.25S WCI  18

$$

LMZ046-743>745-190800-
SOUTHERN LAKE MICHIGAN

STATION/POSITION TIME  TEMP WIND        PRES
                       AIR  DIR/SP/G
                 (UTC) (F)  (DEG/KT/KT) (MB)

$$

INZ004-005-014>016-021>024-190800-
NORTH CENTRAL INDIANA

CITY           SKY/WX    TMP DP  RH WIND       PRES   REMARKS
GOSHEN         CLOUDY    27  21  78 W9        30.22S WCI  18
LOGANSPORT +   CLOUDY    27  21  80 W5        30.26S WCI  21
PERU/GRISSOM   CLOUDY    26  23  91 W7        30.24S WCI  18
ROCHESTER +    CLOUDY    28  23  80 W8        30.25S WCI  20
SOUTH BEND     CLOUDY    27  22  81 SW8       30.23S WCI  19
WARSAW +       CLOUDY    27  21  80 W9        30.23R WCI  17

$$

INZ006>009-017-018-025>027-190800-
NORTHEAST INDIANA

CITY           SKY/WX    TMP DP  RH WIND       PRES   REMARKS
ANGOLA *+      CLOUDY    27  25  93 W5        30.19S WCI  21
AUBURN +       CLOUDY    28  23  80 W7        30.21F WCI  21
FORT WAYNE     CLOUDY    27  22  81 W9        30.23S WCI  18
HUNTINGTON +   CLOUDY    26  22  85 W5        30.23R WCI  20

$$

INZ028-029-035-036-043>045-051>053-190800-
WEST CENTRAL INDIANA

CITY           SKY/WX    TMP DP  RH WIND       PRES   REMARKS
GREENCASTLE +  CLEAR     23  19  86 CALM      30.26S
LAFAYETTE      CLEAR     19  18  95 W3        30.27S
TERRE HAUTE    CLOUDY    26  23  88 CALM      30.27F

$$

INZ030>032-037>040-046>048-054>057-064-065-190800-
CENTRAL INDIANA

CITY           SKY/WX    TMP DP  RH WIND       PRES   REMARKS
CP ATTERBURY + CLEAR     21  19  93 MISG      30.26S FOG
FRANKFORT +    CLEAR     21  21 100 W3        30.27R
GREENWOOD *+   CLEAR     23  18  80 N3        30.25
INDIANAPOLIS   PTCLDY    22  18  85 CALM      30.24F
-EAGLE CREEK   CLEAR     22  19  89 CALM      30.25S
KOKOMO *+      CLOUDY    27  19  74 W5        30.24F WCI  21
MARION +       CLOUDY    25  21  85 W6        30.24F WCI  18
MT COMFORT *+  CLOUDY    25  16  68 NW5       30.24F WCI  19
SHELBYVILLE    CLOUDY    28  22  78 NW5       30.24S WCI  23
ZIONSVILLE +   CLOUDY    25  19  77 NW3       30.25F

$$

INZ033-034-041-042-049-050-058-059-190800-
EAST CENTRAL INDIANA

CITY           SKY/WX    TMP DP  RH WIND       PRES   REMARKS
MUNCIE         CLOUDY    26  20  77 W7        30.23S WCI  18

$$

INZ060-061-067>069-081>083-085>088-190800-
SOUTHWEST INDIANA

CITY           SKY/WX    TMP DP  RH WIND       PRES   REMARKS
EVANSVILLE     CLOUDY    32  25  75 N6        30.28F WCI  26
HUNTINGBURG *+ MOCLDY    30  23  74 N6        30.27S WCI  24
WASHINGTON +   PTCLDY    26  22  87 NW3       30.27F

$$

INZ062-063-066-070>080-084-089>092-190800-
SOUTH CENTRAL AND SOUTHEAST INDIANA

CITY           SKY/WX    TMP DP  RH WIND       PRES   REMARKS
BLOOMINGTON    CLOUDY    27  24  89 CALM      30.25F

$$



USA.gov is the U.S. government's official web portal to all federal, state and local government web resources and services.